Regional Weather Roundup
Issued by NWS Sterling, VA

Home | Current Version | Previous Version | Graphics & Text | Print | Product List | Glossary On
Versions: 1 2 3 4 5 6 7 8 9 10 11 12 13 14 15 16 17 18 19 20 21 22 23 24 25 26 27
000
ASUS41 KLWX 212210
RWRLWX

REGIONAL WEATHER ROUNDUP
NATIONAL WEATHER SERVICE BALTIMORE MD/WASHINGTON DC
600 PM EDT TUE MAR 21 2017

Note: "FAIR" indicates few or no clouds below 12,000 feet
with no significant weather and/or obstructions to visibility.
 TC=TEMPERATURE CELSIUS

 * =Non NWS site. Station does not report precipitation (e.g. rain,
    snow, etc.), thunder, or fog.

DCZ001-MDZ009-015-VAZ040>042-051-053>054-212300-
WASHINGTON METRO

CITY           SKY/WX    TMP DP  RH WIND       PRES   REMARKS
WASHINGTON NAT PTSUNNY   62  41  46 N10       29.93R
DULLES         PTSUNNY   61  39  44 NW15      29.92F
ANDREWS AFB    SUNNY     60  40  48 W8        29.91R
FT BELVOIR     SUNNY     62  40  44 NW10      29.91S
QUANTICO       PTSUNNY   62  44  51 N9        29.93F
COLLEGE PARK*  CLOUDY    59  37  44 NW10      29.92R
LEESBURG*      CLOUDY    61  43  51 NW8       29.93F
MANASSAS*      MOSUNNY   62  42  47 N10       29.93S
GAITHERSBURG*  CLOUDY    57  37  47 NW10G17   29.96S

$$

MDZ006>007-011-014-212300-
BALTIMORE METRO

CITY           SKY/WX    TMP DP  RH WIND       PRES   REMARKS
BWI AIRPORT    CLOUDY    60  41  49 NW8       29.91R
MD SCIENCE CTR   N/A     61  38  42 MISG      29.89F
MARTIN STATE   PTSUNNY   63  43  48 W7        29.92S
ANNAPOLIS      MOSUNNY   51  42  71 SE8       29.91S
FORT MEADE*    CLOUDY    59  41  51 NW5       29.94R

$$

MDZ012-015-019>023-212300-
MARYLAND EASTERN SHORE

CITY           SKY/WX    TMP DP  RH WIND       PRES   REMARKS
OCEAN CITY     CLOUDY    50  34  54 SE3       29.91S
SALISBURY      CLOUDY    58  40  51 NW10      29.91S
BAY BRIDGE AP* CLOUDY    59  39  47 SE6       29.91S
CAMBRIDGE*     SUNNY     57  39  51 CALM      29.92S
EASTON*        PTSUNNY   59  39  47 W6        29.95S

$$

MDZ017>025-212300-
SOUTHERN MARYLAND

CITY           SKY/WX    TMP DP  RH WIND       PRES   REMARKS
PATUXENT RIVER PTSUNNY   53  39  59 SE7       29.93R
ST INIGOES     CLOUDY    57  40  52 SW5       29.92S
LEONARDTOWN*   MOSUNNY   59  37  44 SE3       29.94R

$$

MDZ003>005-212300-
NORTH CENTRAL MARYLAND

CITY           SKY/WX    TMP DP  RH WIND       PRES   REMARKS
FREDERICK*     MOSUNNY   61  43  51 NW7       29.95F
HAGERSTOWN APT CLOUDY    58  38  47 NW7       29.92F
WESTMINSTER*   CLOUDY    57  41  54 W9        29.91F

$$

MDZ501>502-212300-
WESTERN MARYLAND

CITY           SKY/WX    TMP DP  RH WIND       PRES   REMARKS
OAKLAND*       CLOUDY    45  36  70 W8        29.95S
CUMBERLAND*    CLOUDY    59  34  38 W12G17    29.99R

$$

VAZ025>031-212300-
SHENANDOAH VALLEY

CITY           SKY/WX    TMP DP  RH WIND       PRES   REMARKS
WINCHESTER*    CLOUDY    55  36  47 NW10      29.94S
FRONT ROYAL*   SUNNY     61  41  48 NW5       29.92S
LURAY*         SUNNY     63  45  51 NW6       29.92S
NEW MARKET*    SUNNY     63  35  35 NW6       29.92S
STAUNTON*      SUNNY     64  46  52 NE5       29.93S
WAYNESBORO*    MOSUNNY   66  49  54 CALM      29.91S

$$

WVZ021-048>050-054>055-212300-
EASTERN WEST VIRGINIA PANHANDLE

CITY           SKY/WX    TMP DP  RH WIND       PRES   REMARKS
MARTINSBURG    CLOUDY    58  36  43 W13       29.92F
PETERSBURG*    CLOUDY    58  40  51 W9        30.00R

$$

VAZ036>039-050-212300-
CENTRAL FOOTHILLS

CITY           SKY/WX    TMP DP  RH WIND       PRES   REMARKS
CHARLOTTESVILL MOSUNNY   67  45  45 E6        29.90S
CULPEPER*      SUNNY     64  44  47 CALM      29.92F
ORANGE*        SUNNY     63  45  51 CALM      29.92S
GORDONSVILLE*  SUNNY     64  46  51 CALM      29.91R
WARRENTON*     SUNNY     64  38  38 N6        29.91F

$$

VAZ055>057-212300-
NORTH AND CENTRAL PIEDMONT

CITY           SKY/WX    TMP DP  RH WIND       PRES   REMARKS
FREDERICKSBRG* SUNNY     63  45  52 N8        29.91S
STAFFORD*      SUNNY     62  44  52 N9        29.96S

$$

NCZ024-NYZ072-PAZ021-071-VAZ022-071-212300-
OTHER REGIONAL OBSERVATIONS

CITY           SKY/WX    TMP DP  RH WIND       PRES   REMARKS
NEW YORK CITY  SUNNY     58  30  34 W9        29.84S
PHILADELPHIA   PTSUNNY   59  35  40 W15       29.89R
PITTSBURGH     PTSUNNY   57  34  41 NW17G23   29.95S
ROANOKE        MOSUNNY   67  45  45 NW9       29.96S
RICHMOND       CLOUDY    66  46  48 CALM      29.91F
RALEIGH        MOSUNNY   80  48  32 CALM      29.87F

$$

ANZ530>537-212300-
MARINE OBSERVATIONS

STATION/POSITION TIME  TEMP    WIND        PRES
                       AIR SEA DIR/SP/G
                 (UTC) (F)     (DEG/KT/KT) (MB)
THOMAS PT LIGHT  2200   47 43  200/  8/  8   N/A
BALT KEY BRIDGE  2142   58     300/ 14/ 16 1012.5S
COVE POINT       2142   49     190/  2/  2 1013.8F
LEWISETTA        2142   49 49  120/  5/  6 1013.3S
SOLOMONS ISLAND  2148           90/  7/  8   N/A

$$





USA.gov is the U.S. government's official web portal to all federal, state and local government web resources and services.